Zurück zum Katalog

USA 367

AktivMilitärVLEO
NORAD 59827·PAYLOAD·🇺🇸 United States

Gestartet May 22, 2024 von Vandenberg Space Force Base

Loading…

Nächste Überflüge (nächste 24 Stunden)

TLE

VeraltetSource: Mike McCants

Epoche: Aug 8, 2026, 00:23 UTC

1 59827U 24096P   26220.01662085 0.00000000  00000-0  00000-0 0    05
2 59827  70.0227 181.8948 0002000 221.9149 138.0851 14.96713443    08

Verfolge USA 367 in Echtzeit mit AllMySat

Download on the App Store